Year,Month,Day,Hour,Minute,Value (Times are PST for temperature in C)
2018,07,03,00,00,13.50
2018,07,03,00,01,13.40
2018,07,03,00,02,13.30
2018,07,03,00,03,13.30
2018,07,03,00,04,13.30
2018,07,03,00,05,13.20
2018,07,03,00,06,13.20
2018,07,03,00,07,13.20
2018,07,03,00,08,13.20
2018,07,03,00,09,13.10
2018,07,03,00,10,13.10
2018,07,03,00,11,13.10
2018,07,03,00,12,13.00
2018,07,03,00,13,13.00
2018,07,03,00,14,12.90
2018,07,03,00,15,12.90
2018,07,03,00,16,12.80
2018,07,03,00,17,12.80
2018,07,03,00,18,12.70
2018,07,03,00,19,12.70
2018,07,03,00,20,12.60
2018,07,03,00,21,12.60
2018,07,03,00,22,12.50
2018,07,03,00,23,12.50
2018,07,03,00,24,12.40
2018,07,03,00,25,12.40
2018,07,03,00,26,12.40
2018,07,03,00,27,12.40
2018,07,03,00,28,12.40
2018,07,03,00,29,12.30
2018,07,03,00,30,12.30
2018,07,03,00,31,12.30
2018,07,03,00,32,12.30
2018,07,03,00,33,12.20
2018,07,03,00,34,12.20
2018,07,03,00,35,12.20
2018,07,03,00,36,12.20
2018,07,03,00,37,12.20
2018,07,03,00,38,12.10
2018,07,03,00,39,12.10
2018,07,03,00,40,12.10
2018,07,03,00,41,12.10
2018,07,03,00,42,12.10
2018,07,03,00,43,12.10
2018,07,03,00,44,12.10
2018,07,03,00,45,12.00
2018,07,03,00,46,12.00
2018,07,03,00,47,12.00
2018,07,03,00,48,12.00
2018,07,03,00,49,12.00
2018,07,03,00,50,12.10
2018,07,03,00,51,12.10
2018,07,03,00,52,12.10
2018,07,03,00,53,12.00
2018,07,03,00,54,12.00
2018,07,03,00,55,11.90
2018,07,03,00,56,11.90
2018,07,03,00,57,11.80
2018,07,03,00,58,11.80
2018,07,03,00,59,11.80
2018,07,03,01,00,11.70
2018,07,03,01,01,11.70
2018,07,03,01,02,11.70
2018,07,03,01,03,11.70
2018,07,03,01,04,11.70
2018,07,03,01,05,11.70
2018,07,03,01,06,11.70
2018,07,03,01,07,11.60
2018,07,03,01,08,11.60
2018,07,03,01,09,11.60
2018,07,03,01,10,11.50
2018,07,03,01,11,11.50
2018,07,03,01,12,11.50
2018,07,03,01,13,11.40
2018,07,03,01,14,11.40
2018,07,03,01,15,11.40
2018,07,03,01,16,11.40
2018,07,03,01,17,11.40
2018,07,03,01,18,11.40
2018,07,03,01,19,11.40
2018,07,03,01,20,11.40
2018,07,03,01,21,11.40
2018,07,03,01,22,11.30
2018,07,03,01,23,11.30
2018,07,03,01,24,11.30
2018,07,03,01,25,11.30
2018,07,03,01,26,11.30
2018,07,03,01,27,11.20
2018,07,03,01,28,11.20
2018,07,03,01,29,11.20
2018,07,03,01,30,11.20
2018,07,03,01,31,11.20
2018,07,03,01,32,11.20
2018,07,03,01,33,11.20
2018,07,03,01,34,11.20
2018,07,03,01,35,11.10
2018,07,03,01,36,11.10
2018,07,03,01,37,11.10
2018,07,03,01,38,11.10
2018,07,03,01,39,11.10
2018,07,03,01,40,11.10
2018,07,03,01,41,11.10
2018,07,03,01,42,11.10
2018,07,03,01,43,11.10
2018,07,03,01,44,11.10
2018,07,03,01,45,11.10
2018,07,03,01,46,11.00
2018,07,03,01,47,11.00
2018,07,03,01,48,11.00
2018,07,03,01,49,11.00
2018,07,03,01,50,10.90
2018,07,03,01,51,10.90
2018,07,03,01,52,10.90
2018,07,03,01,53,10.90
2018,07,03,01,54,10.90
2018,07,03,01,55,10.90
2018,07,03,01,56,10.90
2018,07,03,01,57,10.80
2018,07,03,01,58,10.80
2018,07,03,01,59,10.80
2018,07,03,02,00,10.80
2018,07,03,02,01,10.80
2018,07,03,02,02,10.80
2018,07,03,02,03,10.80
2018,07,03,02,04,10.70
2018,07,03,02,05,10.70
2018,07,03,02,06,10.70
2018,07,03,02,07,10.70
2018,07,03,02,08,10.70
2018,07,03,02,09,10.70
2018,07,03,02,10,10.70
2018,07,03,02,11,10.70
2018,07,03,02,12,10.70
2018,07,03,02,13,10.70
2018,07,03,02,14,10.70
2018,07,03,02,15,10.70
2018,07,03,02,16,10.70
2018,07,03,02,17,10.70
2018,07,03,02,18,10.70
2018,07,03,02,19,10.70
2018,07,03,02,20,10.70
2018,07,03,02,21,10.70
2018,07,03,02,22,10.70
2018,07,03,02,23,10.60
2018,07,03,02,24,10.60
2018,07,03,02,25,10.60
2018,07,03,02,26,10.60
2018,07,03,02,27,10.60
2018,07,03,02,28,10.60
2018,07,03,02,29,10.50
2018,07,03,02,30,10.50
2018,07,03,02,31,10.50
2018,07,03,02,32,10.50
2018,07,03,02,33,10.50
2018,07,03,02,34,10.50
2018,07,03,02,35,10.50
2018,07,03,02,36,10.50
2018,07,03,02,37,10.50
2018,07,03,02,38,10.50
2018,07,03,02,39,10.50
2018,07,03,02,40,10.50
2018,07,03,02,41,10.50
2018,07,03,02,42,10.40
2018,07,03,02,43,10.40
2018,07,03,02,44,10.40
2018,07,03,02,45,10.40
2018,07,03,02,46,10.40
2018,07,03,02,47,10.30
2018,07,03,02,48,10.30
2018,07,03,02,49,10.30
2018,07,03,02,50,10.30
2018,07,03,02,51,10.20
2018,07,03,02,52,10.30
2018,07,03,02,53,10.30
2018,07,03,02,54,10.30
2018,07,03,02,55,10.30
2018,07,03,02,56,10.30
2018,07,03,02,57,10.30
2018,07,03,02,58,10.30
2018,07,03,02,59,10.30
2018,07,03,03,00,10.30
2018,07,03,03,01,10.30
2018,07,03,03,02,10.30
2018,07,03,03,03,10.30
2018,07,03,03,04,10.30
2018,07,03,03,05,10.30
2018,07,03,03,06,10.20
2018,07,03,03,07,10.20
2018,07,03,03,08,10.20
2018,07,03,03,09,10.20
2018,07,03,03,10,10.30
2018,07,03,03,11,10.30
2018,07,03,03,12,10.30
2018,07,03,03,13,10.30
2018,07,03,03,14,10.30
2018,07,03,03,15,10.30
2018,07,03,03,16,10.30
2018,07,03,03,17,10.30
2018,07,03,03,18,10.30
2018,07,03,03,19,10.20
2018,07,03,03,20,10.20
2018,07,03,03,21,10.20
2018,07,03,03,22,10.20
2018,07,03,03,23,10.20
2018,07,03,03,24,10.20
2018,07,03,03,25,10.20
2018,07,03,03,26,10.20
2018,07,03,03,27,10.20
2018,07,03,03,28,10.20
2018,07,03,03,29,10.20
2018,07,03,03,30,10.20
2018,07,03,03,31,10.20
2018,07,03,03,32,10.20
2018,07,03,03,33,10.20
2018,07,03,03,34,10.20
2018,07,03,03,35,10.20
2018,07,03,03,36,10.20
2018,07,03,03,37,10.20
2018,07,03,03,38,10.20
2018,07,03,03,39,10.10
2018,07,03,03,40,10.10
2018,07,03,03,41,10.10
2018,07,03,03,42,10.10
2018,07,03,03,43,10.00
2018,07,03,03,44,10.00
2018,07,03,03,45,10.00
2018,07,03,03,46,9.90
2018,07,03,03,47,9.90
2018,07,03,03,48,9.90
2018,07,03,03,49,9.90
2018,07,03,03,50,9.90
2018,07,03,03,51,9.90
2018,07,03,03,52,9.90
2018,07,03,03,53,9.90
2018,07,03,03,54,9.90
2018,07,03,03,55,9.90
2018,07,03,03,56,9.90
2018,07,03,03,57,9.90
2018,07,03,03,58,9.90
2018,07,03,03,59,9.90
2018,07,03,04,00,9.90
2018,07,03,04,01,9.90
2018,07,03,04,02,9.90
2018,07,03,04,03,9.90
2018,07,03,04,04,9.90
2018,07,03,04,05,9.80
2018,07,03,04,06,9.80
2018,07,03,04,07,9.80
2018,07,03,04,08,9.80
2018,07,03,04,09,9.80
2018,07,03,04,10,9.80
2018,07,03,04,11,9.80
2018,07,03,04,12,9.80
2018,07,03,04,13,9.80
2018,07,03,04,14,9.70
2018,07,03,04,15,9.70
2018,07,03,04,16,9.70
2018,07,03,04,17,9.70
2018,07,03,04,18,9.70
2018,07,03,04,19,9.70
2018,07,03,04,20,9.70
2018,07,03,04,21,9.70
2018,07,03,04,22,9.70
2018,07,03,04,23,9.70
2018,07,03,04,24,9.70
2018,07,03,04,25,9.70
2018,07,03,04,26,9.70
2018,07,03,04,27,9.60
2018,07,03,04,28,9.60
2018,07,03,04,29,9.60
2018,07,03,04,30,9.60
2018,07,03,04,31,9.60
2018,07,03,04,32,9.60
2018,07,03,04,33,9.60
2018,07,03,04,34,9.60
2018,07,03,04,35,9.60
2018,07,03,04,36,9.60
2018,07,03,04,37,9.60
2018,07,03,04,38,9.60
2018,07,03,04,39,9.60
2018,07,03,04,40,9.60
2018,07,03,04,41,9.60
2018,07,03,04,42,9.60
2018,07,03,04,43,9.60
2018,07,03,04,44,9.60
2018,07,03,04,45,9.60
2018,07,03,04,46,9.60
2018,07,03,04,47,9.60
2018,07,03,04,48,9.60
2018,07,03,04,49,9.50
2018,07,03,04,50,9.50
2018,07,03,04,51,9.50
2018,07,03,04,52,9.50
2018,07,03,04,53,9.50
2018,07,03,04,54,9.40
2018,07,03,04,55,9.40
2018,07,03,04,56,9.40
2018,07,03,04,57,9.40
2018,07,03,04,58,9.40
2018,07,03,04,59,9.40
2018,07,03,05,00,9.40
2018,07,03,05,01,9.30
2018,07,03,05,02,9.30
2018,07,03,05,03,9.30
2018,07,03,05,04,9.30
2018,07,03,05,05,9.30
2018,07,03,05,06,9.30
2018,07,03,05,07,9.30
2018,07,03,05,08,9.30
2018,07,03,05,09,9.30
2018,07,03,05,10,9.30
2018,07,03,05,11,9.30
2018,07,03,05,12,9.30
2018,07,03,05,13,9.30
2018,07,03,05,14,9.30
2018,07,03,05,15,9.30
2018,07,03,05,16,9.30
2018,07,03,05,17,9.30
2018,07,03,05,18,9.30
2018,07,03,05,19,9.30
2018,07,03,05,20,9.30
2018,07,03,05,21,9.30
2018,07,03,05,22,9.30
2018,07,03,05,23,9.30
2018,07,03,05,24,9.30
2018,07,03,05,25,9.40
2018,07,03,05,26,9.40
2018,07,03,05,27,9.40
2018,07,03,05,28,9.40
2018,07,03,05,29,9.40
2018,07,03,05,30,9.40
2018,07,03,05,31,9.40
2018,07,03,05,32,9.40
2018,07,03,05,33,9.30
2018,07,03,05,34,9.30
2018,07,03,05,35,9.30
2018,07,03,05,36,9.30
2018,07,03,05,37,9.30
2018,07,03,05,38,9.30
2018,07,03,05,39,9.30
2018,07,03,05,40,9.30
2018,07,03,05,41,9.20
2018,07,03,05,42,9.20
2018,07,03,05,43,9.20
2018,07,03,05,44,9.20
2018,07,03,05,45,9.20
2018,07,03,05,46,9.20
2018,07,03,05,47,9.20
2018,07,03,05,48,9.20
2018,07,03,05,49,9.20
2018,07,03,05,50,9.20
2018,07,03,05,51,9.20
2018,07,03,05,52,9.20
2018,07,03,05,53,9.20
2018,07,03,05,54,9.30
2018,07,03,05,55,9.30
2018,07,03,05,56,9.30
2018,07,03,05,57,9.30
2018,07,03,05,58,9.30
2018,07,03,05,59,9.30
2018,07,03,06,00,9.30
2018,07,03,06,01,9.30
2018,07,03,06,02,9.30
2018,07,03,06,03,9.40
2018,07,03,06,04,9.40
2018,07,03,06,05,9.40
2018,07,03,06,06,9.40
2018,07,03,06,07,9.40
2018,07,03,06,08,9.50
2018,07,03,06,09,9.50
2018,07,03,06,10,9.60
2018,07,03,06,11,9.60
2018,07,03,06,12,9.60
2018,07,03,06,13,9.70
2018,07,03,06,14,9.70
2018,07,03,06,15,9.70
2018,07,03,06,16,9.70
2018,07,03,06,17,9.80
2018,07,03,06,18,9.80
2018,07,03,06,19,9.80
2018,07,03,06,20,9.80
2018,07,03,06,21,9.90
2018,07,03,06,22,9.90
2018,07,03,06,23,9.90
2018,07,03,06,24,10.00
2018,07,03,06,25,10.00
2018,07,03,06,26,10.00
2018,07,03,06,27,10.10
2018,07,03,06,28,10.10
2018,07,03,06,29,10.10
2018,07,03,06,30,10.10
2018,07,03,06,31,10.10
2018,07,03,06,32,10.20
2018,07,03,06,33,10.20
2018,07,03,06,34,10.20
2018,07,03,06,35,10.20
2018,07,03,06,36,10.20
2018,07,03,06,37,10.20
2018,07,03,06,38,10.20
2018,07,03,06,39,10.20
2018,07,03,06,40,10.20
2018,07,03,06,41,10.20
2018,07,03,06,42,10.20
2018,07,03,06,43,10.30
2018,07,03,06,44,10.30
2018,07,03,06,45,10.30
2018,07,03,06,46,10.40
2018,07,03,06,47,10.40
2018,07,03,06,48,10.50
2018,07,03,06,49,10.50
2018,07,03,06,50,10.60
2018,07,03,06,51,10.70
2018,07,03,06,52,10.70
2018,07,03,06,53,10.80
2018,07,03,06,54,10.90
2018,07,03,06,55,11.00
2018,07,03,06,56,11.10
2018,07,03,06,57,11.10
2018,07,03,06,58,11.20
2018,07,03,06,59,11.30
2018,07,03,07,00,11.40
2018,07,03,07,01,11.50
2018,07,03,07,02,11.60
2018,07,03,07,03,11.70
2018,07,03,07,04,11.80
2018,07,03,07,05,12.00
2018,07,03,07,06,12.10
2018,07,03,07,07,12.30
2018,07,03,07,08,12.40
2018,07,03,07,09,12.50
2018,07,03,07,10,12.60
2018,07,03,07,11,12.60
2018,07,03,07,12,12.60
2018,07,03,07,13,12.60
2018,07,03,07,14,12.50
2018,07,03,07,15,12.50
2018,07,03,07,16,12.40
2018,07,03,07,17,12.40
2018,07,03,07,18,12.40
2018,07,03,07,19,12.30
2018,07,03,07,20,12.30
2018,07,03,07,21,12.20
2018,07,03,07,22,12.20
2018,07,03,07,23,12.10
2018,07,03,07,24,12.00
2018,07,03,07,25,12.00
2018,07,03,07,26,11.90
2018,07,03,07,27,11.90
2018,07,03,07,28,11.80
2018,07,03,07,29,11.70
2018,07,03,07,30,11.70
2018,07,03,07,31,11.70
2018,07,03,07,32,11.60
2018,07,03,07,33,11.60
2018,07,03,07,34,11.60
2018,07,03,07,35,11.60
2018,07,03,07,36,11.60
2018,07,03,07,37,11.60
2018,07,03,07,38,11.60
2018,07,03,07,39,11.60
2018,07,03,07,40,11.60
2018,07,03,07,41,11.70
2018,07,03,07,42,11.70
2018,07,03,07,43,11.70
2018,07,03,07,44,11.70
2018,07,03,07,45,11.70
2018,07,03,07,46,11.70
2018,07,03,07,47,11.70
2018,07,03,07,48,11.70
2018,07,03,07,49,11.70
2018,07,03,07,50,11.70
2018,07,03,07,51,11.70
2018,07,03,07,52,11.70
2018,07,03,07,53,11.70
2018,07,03,07,54,11.70
2018,07,03,07,55,11.70
2018,07,03,07,56,11.70
2018,07,03,07,57,11.70
2018,07,03,07,58,11.70
2018,07,03,07,59,11.60
2018,07,03,08,00,11.70
2018,07,03,08,01,11.70
2018,07,03,08,02,11.70
2018,07,03,08,03,11.70
2018,07,03,08,04,11.70
2018,07,03,08,05,11.70
2018,07,03,08,06,11.70
2018,07,03,08,07,11.70
2018,07,03,08,08,11.70
2018,07,03,08,09,11.80
2018,07,03,08,10,11.80
2018,07,03,08,11,11.80
2018,07,03,08,12,11.80
2018,07,03,08,13,11.90
2018,07,03,08,14,11.90
2018,07,03,08,15,11.90
2018,07,03,08,16,12.00
2018,07,03,08,17,12.00
2018,07,03,08,18,12.00
2018,07,03,08,19,12.10
2018,07,03,08,20,12.10
2018,07,03,08,21,12.10
2018,07,03,08,22,12.10
2018,07,03,08,23,12.10
2018,07,03,08,24,12.20
2018,07,03,08,25,12.20
2018,07,03,08,26,12.20
2018,07,03,08,27,12.20
2018,07,03,08,28,12.20
2018,07,03,08,29,12.20
2018,07,03,08,30,12.20
2018,07,03,08,31,12.20
2018,07,03,08,32,12.20
2018,07,03,08,33,12.20
2018,07,03,08,34,12.20
2018,07,03,08,35,12.20
2018,07,03,08,36,12.20
2018,07,03,08,37,12.20
2018,07,03,08,38,12.20
2018,07,03,08,39,12.30
2018,07,03,08,40,12.30
2018,07,03,08,41,12.30
2018,07,03,08,42,12.40
2018,07,03,08,43,12.40
2018,07,03,08,44,12.40
2018,07,03,08,45,12.50
2018,07,03,08,46,12.50
2018,07,03,08,47,12.60
2018,07,03,08,48,12.60
2018,07,03,08,49,12.60
2018,07,03,08,50,12.60
2018,07,03,08,51,12.60
2018,07,03,08,52,12.60
2018,07,03,08,53,12.70
2018,07,03,08,54,12.70
2018,07,03,08,55,12.70
2018,07,03,08,56,12.70
2018,07,03,08,57,12.70
2018,07,03,08,58,12.60
2018,07,03,08,59,12.50
2018,07,03,09,00,12.40
2018,07,03,09,01,12.30
2018,07,03,09,02,12.30
2018,07,03,09,03,12.30
2018,07,03,09,04,12.20
2018,07,03,09,05,12.20
2018,07,03,09,06,12.10
2018,07,03,09,07,12.10
2018,07,03,09,08,12.20
2018,07,03,09,09,12.20
2018,07,03,09,10,12.20
2018,07,03,09,11,12.20
2018,07,03,09,12,12.30
2018,07,03,09,13,12.30
2018,07,03,09,14,12.30
2018,07,03,09,15,12.30
2018,07,03,09,16,12.40
2018,07,03,09,17,12.40
2018,07,03,09,18,12.50
2018,07,03,09,19,12.50
2018,07,03,09,20,12.60
2018,07,03,09,21,12.60
2018,07,03,09,22,12.60
2018,07,03,09,23,12.70
2018,07,03,09,24,12.70
2018,07,03,09,25,12.70
2018,07,03,09,26,12.70
2018,07,03,09,27,12.70
2018,07,03,09,28,12.60
2018,07,03,09,29,12.50
2018,07,03,09,30,12.40
2018,07,03,09,31,12.40
2018,07,03,09,32,12.40
2018,07,03,09,33,12.50
2018,07,03,09,34,12.50
2018,07,03,09,35,12.60
2018,07,03,09,36,12.70
2018,07,03,09,37,12.70
2018,07,03,09,38,12.70
2018,07,03,09,39,12.80
2018,07,03,09,40,12.80
2018,07,03,09,41,12.80
2018,07,03,09,42,12.80
2018,07,03,09,43,12.80
2018,07,03,09,44,12.70
2018,07,03,09,45,12.70
2018,07,03,09,46,12.70
2018,07,03,09,47,12.70
2018,07,03,09,48,12.70
2018,07,03,09,49,12.70
2018,07,03,09,50,12.60
2018,07,03,09,51,12.70
2018,07,03,09,52,12.70
2018,07,03,09,53,12.70
2018,07,03,09,54,12.70
2018,07,03,09,55,12.70
2018,07,03,09,56,12.80
2018,07,03,09,57,12.80
2018,07,03,09,58,12.80
2018,07,03,09,59,12.80
2018,07,03,10,00,12.80
2018,07,03,10,01,12.80
2018,07,03,10,02,12.80
2018,07,03,10,03,12.80
2018,07,03,10,04,12.70
2018,07,03,10,05,12.70
2018,07,03,10,06,12.70
2018,07,03,10,07,12.60
2018,07,03,10,08,12.60
2018,07,03,10,09,12.60
2018,07,03,10,10,12.60
2018,07,03,10,11,12.60
2018,07,03,10,12,12.60
2018,07,03,10,13,12.60
2018,07,03,10,14,12.60
2018,07,03,10,15,12.70
2018,07,03,10,16,12.70
2018,07,03,10,17,12.70
2018,07,03,10,18,12.70
2018,07,03,10,19,12.70
2018,07,03,10,20,12.70
2018,07,03,10,21,12.70
2018,07,03,10,22,12.70
2018,07,03,10,23,12.70
2018,07,03,10,24,12.70
2018,07,03,10,25,12.80
2018,07,03,10,26,12.80
2018,07,03,10,27,12.80
2018,07,03,10,28,12.90
2018,07,03,10,29,13.00
2018,07,03,10,30,13.10
2018,07,03,10,31,13.20
2018,07,03,10,32,13.40
2018,07,03,10,33,13.50
2018,07,03,10,34,13.60
2018,07,03,10,35,13.70
2018,07,03,10,36,13.70
2018,07,03,10,37,13.80
2018,07,03,10,38,13.80
2018,07,03,10,39,13.70
2018,07,03,10,40,13.70
2018,07,03,10,41,13.60
2018,07,03,10,42,13.60
2018,07,03,10,43,13.60
2018,07,03,10,44,13.70
2018,07,03,10,45,13.70
2018,07,03,10,46,13.80
2018,07,03,10,47,13.90
2018,07,03,10,48,14.00
2018,07,03,10,49,14.00
2018,07,03,10,50,14.10
2018,07,03,10,51,14.20
2018,07,03,10,52,14.20
2018,07,03,10,53,14.30
2018,07,03,10,54,14.30
2018,07,03,10,55,14.30
2018,07,03,10,56,14.30
2018,07,03,10,57,14.30
2018,07,03,10,58,14.30
2018,07,03,10,59,14.10
2018,07,03,11,00,13.90
2018,07,03,11,01,13.80
2018,07,03,11,02,13.80
2018,07,03,11,03,13.80
2018,07,03,11,04,13.90
2018,07,03,11,05,14.00
2018,07,03,11,06,14.10
2018,07,03,11,07,14.20
2018,07,03,11,08,14.30
2018,07,03,11,09,14.40
2018,07,03,11,10,14.40
2018,07,03,11,11,14.50
2018,07,03,11,12,14.60
2018,07,03,11,13,14.60
2018,07,03,11,14,14.70
2018,07,03,11,15,14.70
2018,07,03,11,16,14.70
2018,07,03,11,17,14.80
2018,07,03,11,18,14.80
2018,07,03,11,19,14.80
2018,07,03,11,20,14.80
2018,07,03,11,21,14.80
2018,07,03,11,22,14.80
2018,07,03,11,23,14.70
2018,07,03,11,24,14.70
2018,07,03,11,25,14.70
2018,07,03,11,26,14.70
2018,07,03,11,27,14.70
2018,07,03,11,28,14.70
2018,07,03,11,29,14.60
2018,07,03,11,30,14.60
2018,07,03,11,31,14.60
2018,07,03,11,32,14.60
2018,07,03,11,33,14.50
2018,07,03,11,34,14.50
2018,07,03,11,35,14.50
2018,07,03,11,36,14.50
2018,07,03,11,37,14.50
2018,07,03,11,38,14.60
2018,07,03,11,39,14.60
2018,07,03,11,40,14.60
2018,07,03,11,41,14.60
2018,07,03,11,42,14.60
2018,07,03,11,43,14.60
2018,07,03,11,44,14.50
2018,07,03,11,45,14.50
2018,07,03,11,46,14.40
2018,07,03,11,47,14.40
2018,07,03,11,48,14.40
2018,07,03,11,49,14.40
2018,07,03,11,50,14.30
2018,07,03,11,51,14.30
2018,07,03,11,52,14.10
2018,07,03,11,53,13.90
2018,07,03,11,54,13.60
2018,07,03,11,55,13.30
2018,07,03,11,56,13.10
2018,07,03,11,57,12.90
2018,07,03,11,58,12.70
2018,07,03,11,59,12.60
2018,07,03,12,00,12.50
2018,07,03,12,01,12.50
2018,07,03,12,02,12.40
2018,07,03,12,03,12.30
2018,07,03,12,04,12.30
2018,07,03,12,05,12.30
2018,07,03,12,06,12.30
2018,07,03,12,07,12.30
2018,07,03,12,08,12.30
2018,07,03,12,09,12.30
2018,07,03,12,10,12.30
2018,07,03,12,11,12.30
2018,07,03,12,12,12.30
2018,07,03,12,13,12.30
2018,07,03,12,14,12.30
2018,07,03,12,15,12.30
2018,07,03,12,16,12.30
2018,07,03,12,17,12.40
2018,07,03,12,18,12.40
2018,07,03,12,19,12.50
2018,07,03,12,20,12.50
2018,07,03,12,21,12.50
2018,07,03,12,22,12.60
2018,07,03,12,23,12.70
2018,07,03,12,24,12.70
2018,07,03,12,25,12.70
2018,07,03,12,26,12.80
2018,07,03,12,27,12.80
2018,07,03,12,28,12.90
2018,07,03,12,29,12.90
2018,07,03,12,30,13.00
2018,07,03,12,31,13.00
2018,07,03,12,32,13.00
2018,07,03,12,33,13.10
2018,07,03,12,34,13.10
2018,07,03,12,35,13.10
2018,07,03,12,36,13.10
2018,07,03,12,37,13.10
2018,07,03,12,38,13.10
2018,07,03,12,39,13.10
2018,07,03,12,40,13.10
2018,07,03,12,41,13.10
2018,07,03,12,42,13.10
2018,07,03,12,43,13.10
2018,07,03,12,44,13.10
2018,07,03,12,45,13.10
2018,07,03,12,46,13.20
2018,07,03,12,47,13.20
2018,07,03,12,48,13.20
2018,07,03,12,49,13.20
2018,07,03,12,50,13.30
2018,07,03,12,51,13.30
2018,07,03,12,52,13.30
2018,07,03,12,53,13.30
2018,07,03,12,54,13.40
2018,07,03,12,55,13.50
2018,07,03,12,56,13.60
2018,07,03,12,57,13.70
2018,07,03,12,58,13.70
2018,07,03,12,59,13.80
2018,07,03,13,00,13.90
2018,07,03,13,01,14.00
2018,07,03,13,02,14.00
2018,07,03,13,03,14.10
2018,07,03,13,04,14.10
2018,07,03,13,05,14.10
2018,07,03,13,06,14.20
2018,07,03,13,07,14.20
2018,07,03,13,08,14.20
2018,07,03,13,09,14.20
2018,07,03,13,10,14.20
2018,07,03,13,11,14.20
2018,07,03,13,12,14.30
2018,07,03,13,13,14.30
2018,07,03,13,14,14.30
2018,07,03,13,15,14.20
2018,07,03,13,16,14.20
2018,07,03,13,17,14.20
2018,07,03,13,18,14.30
2018,07,03,13,19,14.30
2018,07,03,13,20,14.20
2018,07,03,13,21,14.30
2018,07,03,13,22,14.30
2018,07,03,13,23,14.30
2018,07,03,13,24,14.30
2018,07,03,13,25,14.30
2018,07,03,13,26,14.40
2018,07,03,13,27,14.40
2018,07,03,13,28,14.40
2018,07,03,13,29,14.50
2018,07,03,13,30,14.50
2018,07,03,13,31,14.50
2018,07,03,13,32,14.60
2018,07,03,13,33,14.60
2018,07,03,13,34,14.60
2018,07,03,13,35,14.60
2018,07,03,13,36,14.60
2018,07,03,13,37,14.60
2018,07,03,13,38,14.50
2018,07,03,13,39,14.40
2018,07,03,13,40,14.40
2018,07,03,13,41,14.40
2018,07,03,13,42,14.40
2018,07,03,13,43,14.40
2018,07,03,13,44,14.40
2018,07,03,13,45,14.40
2018,07,03,13,46,14.40
2018,07,03,13,47,14.30
2018,07,03,13,48,14.30
2018,07,03,13,49,14.30
2018,07,03,13,50,14.20
2018,07,03,13,51,14.20
2018,07,03,13,52,14.20
2018,07,03,13,53,14.20
2018,07,03,13,54,14.20
2018,07,03,13,55,14.20
2018,07,03,13,56,14.20
2018,07,03,13,57,14.10
2018,07,03,13,58,14.00
2018,07,03,13,59,13.90
2018,07,03,14,00,13.90
2018,07,03,14,01,13.90
2018,07,03,14,02,13.80
2018,07,03,14,03,13.80
2018,07,03,14,04,13.80
2018,07,03,14,05,13.80
2018,07,03,14,06,13.80
2018,07,03,14,07,13.90
2018,07,03,14,08,13.90
2018,07,03,14,09,13.90
2018,07,03,14,10,13.90
2018,07,03,14,11,13.80
2018,07,03,14,12,13.80
2018,07,03,14,13,13.80
2018,07,03,14,14,13.80
2018,07,03,14,15,13.80
2018,07,03,14,16,13.80
2018,07,03,14,17,13.80
2018,07,03,14,18,13.90
2018,07,03,14,19,14.00
2018,07,03,14,20,14.00
2018,07,03,14,21,14.10
2018,07,03,14,22,14.10
2018,07,03,14,23,14.10
2018,07,03,14,24,14.00
2018,07,03,14,25,13.90
2018,07,03,14,26,13.70
2018,07,03,14,27,13.60
2018,07,03,14,28,13.50
2018,07,03,14,29,13.40
2018,07,03,14,30,13.30
2018,07,03,14,31,13.30
2018,07,03,14,32,13.20
2018,07,03,14,33,13.20
2018,07,03,14,34,13.10
2018,07,03,14,35,13.10
2018,07,03,14,36,13.10
2018,07,03,14,37,13.00
2018,07,03,14,38,13.00
2018,07,03,14,39,13.00
2018,07,03,14,40,12.90
2018,07,03,14,41,12.90
2018,07,03,14,42,12.90
2018,07,03,14,43,12.90
2018,07,03,14,44,12.90
2018,07,03,14,45,12.90
2018,07,03,14,46,12.80
2018,07,03,14,47,12.80
2018,07,03,14,48,12.80
2018,07,03,14,49,12.80
2018,07,03,14,50,12.80
2018,07,03,14,51,12.80
2018,07,03,14,52,12.80
2018,07,03,14,53,12.80
2018,07,03,14,54,12.90
2018,07,03,14,55,13.00
2018,07,03,14,56,13.10
2018,07,03,14,57,13.20
2018,07,03,14,58,13.30
2018,07,03,14,59,13.40
2018,07,03,15,00,13.50
2018,07,03,15,01,13.60
2018,07,03,15,02,13.70
2018,07,03,15,03,13.90
2018,07,03,15,04,14.00
2018,07,03,15,05,14.10
2018,07,03,15,06,14.10
2018,07,03,15,07,14.00
2018,07,03,15,08,13.90
2018,07,03,15,09,13.90
2018,07,03,15,10,13.80
2018,07,03,15,11,13.80
2018,07,03,15,12,13.70
2018,07,03,15,13,13.60
2018,07,03,15,14,13.50
2018,07,03,15,15,13.40
2018,07,03,15,16,13.40
2018,07,03,15,17,13.30
2018,07,03,15,18,13.30
2018,07,03,15,19,13.30
2018,07,03,15,20,13.20
2018,07,03,15,21,13.20
2018,07,03,15,22,13.10
2018,07,03,15,23,13.10
2018,07,03,15,24,13.10
2018,07,03,15,25,13.10
2018,07,03,15,26,13.10
2018,07,03,15,27,13.10
2018,07,03,15,28,13.10
2018,07,03,15,29,13.10
2018,07,03,15,30,13.10
2018,07,03,15,31,13.10
2018,07,03,15,32,13.10
2018,07,03,15,33,13.10
2018,07,03,15,34,13.10
2018,07,03,15,35,13.10
2018,07,03,15,36,13.10
2018,07,03,15,37,13.10
2018,07,03,15,38,13.10
2018,07,03,15,39,13.10
2018,07,03,15,40,13.10
2018,07,03,15,41,13.10
2018,07,03,15,42,13.10
2018,07,03,15,43,13.10
2018,07,03,15,44,13.10
2018,07,03,15,45,13.10
2018,07,03,15,46,13.10
2018,07,03,15,47,13.10
2018,07,03,15,48,13.10
2018,07,03,15,49,13.10
2018,07,03,15,50,13.10
2018,07,03,15,51,13.10
2018,07,03,15,52,13.10
2018,07,03,15,53,13.10
2018,07,03,15,54,13.20
2018,07,03,15,55,13.20
2018,07,03,15,56,13.30
2018,07,03,15,57,13.30
2018,07,03,15,58,13.30
2018,07,03,15,59,13.40
2018,07,03,16,00,13.50
2018,07,03,16,01,13.50
2018,07,03,16,02,13.60
2018,07,03,16,03,13.70
2018,07,03,16,04,14.00
2018,07,03,16,05,14.20
2018,07,03,16,06,14.50
2018,07,03,16,07,14.80
2018,07,03,16,08,15.10
2018,07,03,16,09,15.40
2018,07,03,16,10,15.60
2018,07,03,16,11,15.90
2018,07,03,16,12,16.00
2018,07,03,16,13,16.20
2018,07,03,16,14,16.30
2018,07,03,16,15,16.40
2018,07,03,16,16,16.40
2018,07,03,16,17,16.50
2018,07,03,16,18,16.60
2018,07,03,16,19,16.60
2018,07,03,16,20,16.70
2018,07,03,16,21,16.70
2018,07,03,16,22,16.80
2018,07,03,16,23,16.80
2018,07,03,16,24,16.80
2018,07,03,16,25,16.90
2018,07,03,16,26,16.90
2018,07,03,16,27,17.00
2018,07,03,16,28,17.00
2018,07,03,16,29,17.00
2018,07,03,16,30,17.00
2018,07,03,16,31,17.00
2018,07,03,16,32,17.10
2018,07,03,16,33,17.10
2018,07,03,16,34,17.10
2018,07,03,16,35,17.10
2018,07,03,16,36,17.10
2018,07,03,16,37,17.10
2018,07,03,16,38,17.10
2018,07,03,16,39,17.20
2018,07,03,16,40,17.20
2018,07,03,16,41,17.20
2018,07,03,16,42,17.20
2018,07,03,16,43,17.20
2018,07,03,16,44,17.30
2018,07,03,16,45,17.30
2018,07,03,16,46,17.30
2018,07,03,16,47,17.30
2018,07,03,16,48,17.30
2018,07,03,16,49,17.40
2018,07,03,16,50,17.40
2018,07,03,16,51,17.40
2018,07,03,16,52,17.40
2018,07,03,16,53,17.40
2018,07,03,16,54,17.40
2018,07,03,16,55,17.50
2018,07,03,16,56,17.60
2018,07,03,16,57,17.60
2018,07,03,16,58,17.60
2018,07,03,16,59,17.70
2018,07,03,17,00,17.70
2018,07,03,17,01,17.70
2018,07,03,17,02,17.70
2018,07,03,17,03,17.80
2018,07,03,17,04,17.80
2018,07,03,17,05,17.80
2018,07,03,17,06,17.80
2018,07,03,17,07,17.80
2018,07,03,17,08,17.90
2018,07,03,17,09,17.90
2018,07,03,17,10,17.90
2018,07,03,17,11,17.90
2018,07,03,17,12,18.00
2018,07,03,17,13,18.00
2018,07,03,17,14,18.10
2018,07,03,17,15,18.10
2018,07,03,17,16,18.20
2018,07,03,17,17,18.20
2018,07,03,17,18,18.30
2018,07,03,17,19,18.30
2018,07,03,17,20,18.40
2018,07,03,17,21,18.40
2018,07,03,17,22,18.50
2018,07,03,17,23,18.60
2018,07,03,17,24,18.60
2018,07,03,17,25,18.70
2018,07,03,17,26,18.70